| time (UTC) | temp F | wind direction | speed knots | gust knots | rain 1hr in | rain 24hr in | rain mn in | humidity % | barometer mb |
| 20260508221536 | 81 | 117 | 0.9 | 3.5 | 0.00 | 0.17 | 0.17 | 62 | 1009.0 |
| 20260508220526 | 79 | 135 | 0.9 | 3.5 | 0.00 | 0.17 | 0.17 | 64 | 1009.2 |
| 20260508215522 | 80 | 164 | 0.9 | 1.7 | 0.00 | 0.17 | 0.17 | 64 | 1009.3 |
| 20260508214517 | 78 | 249 | 0.0 | 0.9 | 0.00 | 0.17 | 0.17 | 67 | 1009.5 |
| 20260508213528 | 76 | 242 | 0.9 | 1.7 | 0.07 | 0.17 | 0.17 | 69 | 1009.7 |
| 20260508212523 | 75 | 275 | 0.0 | 1.7 | 0.13 | 0.17 | 0.17 | 73 | 1009.9 |
| 20260508211518 | 74 | 271 | 0.9 | 3.5 | 0.17 | 0.17 | 0.17 | 73 | 1010.0 |
| 20260508210528 | 73 | 245 | 1.7 | 3.5 | 0.17 | 0.17 | 0.17 | 75 | 1010.2 |
| 20260508205524 | 71 | 155 | 3.5 | 11.3 | 0.17 | 0.17 | 0.17 | 78 | 1009.3 |
| 20260508204519 | 70 | 136 | 7.0 | 16.5 | 0.17 | 0.17 | 0.17 | 79 | 1008.4 |
| 20260508203549 | 72 | 146 | 3.5 | 9.6 | 0.10 | 0.10 | 0.10 | 75 | 1010.3 |
| 20260508202545 | 74 | 141 | 2.6 | 6.1 | 0.05 | 0.05 | 0.05 | 68 | 1011.0 |
| 20260508201520 | 75 | 175 | 3.5 | 7.0 | 0.00 | 0.00 | 0.00 | 61 | 1011.1 |
| 20260508200516 | 77 | 155 | 0.9 | 6.1 | 0.00 | 0.00 | 0.00 | 58 | 1011.6 |
| 20260508195527 | 78 | 160 | 2.6 | 7.0 | 0.00 | 0.00 | 0.00 | 55 | 1011.4 |
| 20260508194522 | 79 | 174 | 2.6 | 7.8 | 0.00 | 0.00 | 0.00 | 52 | 1011.5 |
| 20260508193517 | 82 | 158 | 2.6 | 7.8 | 0.00 | 0.00 | 0.00 | 49 | 1011.4 |
| 20260508192527 | 83 | 157 | 1.7 | 7.0 | 0.00 | 0.00 | 0.00 | 47 | 1011.3 |
| 20260508191522 | 82 | 145 | 3.5 | 7.0 | 0.00 | 0.00 | 0.00 | 48 | 1011.5 |
| 20260508190518 | 81 | 157 | 2.6 | 7.8 | 0.00 | 0.00 | 0.00 | 50 | 1011.7 |
| 20260508185528 | 81 | 165 | 2.6 | 8.7 | 0.00 | 0.00 | 0.00 | 48 | 1011.8 |
| 20260508184524 | 81 | 159 | 3.5 | 7.8 | 0.00 | 0.00 | 0.00 | 49 | 1011.8 |
| 20260508183519 | 81 | 167 | 3.5 | 7.8 | 0.00 | 0.00 | 0.00 | 48 | 1011.9 |
| 20260508182529 | 82 | 151 | 3.5 | 7.0 | 0.00 | 0.00 | 0.00 | 48 | 1012.2 |
| 20260508181525 | 83 | 136 | 2.6 | 7.0 | 0.00 | 0.00 | 0.00 | 46 | 1012.4 |
| 20260508180520 | 85 | 156 | 2.6 | 7.8 | 0.00 | 0.00 | 0.00 | 45 | 1012.4 |
| 20260508175515 | 85 | 141 | 3.5 | 7.0 | 0.00 | 0.00 | 0.00 | 44 | 1012.2 |
| 20260508174546 | 82 | 132 | 2.6 | 6.1 | 0.00 | 0.00 | 0.00 | 47 | 1012.3 |
| 20260508173521 | 81 | 120 | 3.5 | 6.1 | 0.00 | 0.00 | 0.00 | 48 | 1012.9 |
| 20260508172516 | 82 | 153 | 1.7 | 5.2 | 0.00 | 0.00 | 0.00 | 48 | 1012.9 |
| 20260508171547 | 81 | 135 | 1.7 | 5.2 | 0.00 | 0.00 | 0.00 | 47 | 1013.2 |
| 20260508170542 | 82 | 137 | 2.6 | 6.1 | 0.00 | 0.00 | 0.00 | 46 | 1013.4 |
| 20260508165517 | 83 | 129 | 2.6 | 6.1 | 0.00 | 0.00 | 0.00 | 45 | 1013.3 |
| 20260508164608 | 82 | 133 | 4.3 | 8.7 | 0.00 | 0.00 | 0.00 | 45 | 1013.2 |
| 20260508163523 | 82 | 123 | 4.3 | 7.0 | 0.00 | 0.00 | 0.00 | 46 | 1013.4 |
| 20260508162518 | 81 | 128 | 3.5 | 7.0 | 0.00 | 0.00 | 0.00 | 46 | 1013.6 |
| 20260508161529 | 79 | 111 | 3.5 | 7.0 | 0.00 | 0.00 | 0.00 | 50 | 1013.9 |
| 20260508160524 | 75 | 104 | 2.6 | 6.1 | 0.00 | 0.00 | 0.00 | 56 | 1014.1 |
| 20260508155520 | 73 | 144 | 1.7 | 5.2 | 0.00 | 0.00 | 0.00 | 58 | 1014.4 |
| 20260508154515 | 72 | 139 | 1.7 | 2.6 | 0.00 | 0.00 | 0.00 | 59 | 1014.5 |
| 20260508153525 | 72 | 128 | 1.7 | 3.5 | 0.00 | 0.00 | 0.00 | 59 | 1014.8 |
| 20260508152520 | 71 | 138 | 0.9 | 1.7 | 0.00 | 0.00 | 0.00 | 60 | 1014.8 |
| 20260508151536 | 71 | 138 | 1.7 | 3.5 | 0.00 | 0.00 | 0.00 | 59 | 1014.7 |
| 20260508150606 | 72 | 166 | 0.9 | 2.6 | 0.00 | 0.00 | 0.00 | 58 | 1014.8 |
| 20260508145601 | 73 | 157 | 1.7 | 3.5 | 0.00 | 0.00 | 0.00 | 55 | 1014.7 |
| 20260508144517 | 74 | 132 | 0.9 | 3.5 | 0.00 | 0.00 | 0.00 | 55 | 1014.7 |
| 20260508143547 | 74 | 119 | 1.7 | 2.6 | 0.00 | 0.00 | 0.00 | 53 | 1014.7 |
| 20260508142522 | 75 | 104 | 1.7 | 2.6 | 0.00 | 0.00 | 0.00 | 52 | 1014.8 |
| 20260508141538 | 78 | 86 | 0.9 | 2.6 | 0.00 | 0.00 | 0.00 | 48 | 1014.7 |
| 20260508140528 | 85 | 136 | 1.7 | 3.5 | 0.00 | 0.00 | 0.00 | 40 | 1014.8 |
| 20260508135524 | 84 | 113 | 2.6 | 6.1 | 0.00 | 0.00 | 0.00 | 41 | 1014.8 |
| 20260508134519 | 82 | 103 | 3.5 | 6.1 | 0.00 | 0.00 | 0.00 | 44 | 1014.8 |
| 20260508133529 | 79 | 129 | 2.6 | 7.0 | 0.00 | 0.00 | 0.00 | 47 | 1014.8 |
| 20260508132525 | 75 | 114 | 2.6 | 6.1 | 0.00 | 0.00 | 0.00 | 54 | 1014.8 |
| 20260508131520 | 68 | 128 | 0.9 | 2.6 | 0.00 | 0.00 | 0.00 | 72 | 1014.9 |
| 20260508130516 | 63 | 290 | 0.0 | 0.9 | 0.00 | 0.00 | 0.00 | 81 | 1015.1 |
| 20260508125546 | 62 | 290 | 0.0 | 0.9 | 0.00 | 0.00 | 0.00 | 80 | 1015.2 |
| 20260508124521 | 61 | 290 | 0.0 | 0.9 | 0.00 | 0.00 | 0.00 | 82 | 1015.3 |
| 20260508123517 | 60 | 290 | 0.0 | 0.9 | 0.00 | 0.00 | 0.00 | 83 | 1015.0 |
| 20260508122527 | 59 | 290 | 0.0 | 0.9 | 0.00 | 0.00 | 0.00 | 84 | 1014.9 |
| 20260508121542 | 59 | 290 | 0.0 | 0.9 | 0.00 | 0.00 | 0.00 | 84 | 1014.9 |
| 20260508120518 | 58 | 0.0 | 0.0 | 0.00 | 0.00 | 0.00 | 86 | 1014.7 | |
| 20260508115529 | 58 | 0.0 | 0.0 | 0.00 | 0.00 | 0.00 | 86 | 1014.7 | |
| 20260508114523 | 58 | 290 | 0.0 | 0.9 | 0.00 | 0.00 | 0.00 | 84 | 1014.9 |
| 20260508113518 | 58 | 0.0 | 0.0 | 0.00 | 0.00 | 0.00 | 84 | 1015.0 | |
| 20260508112529 | 58 | 290 | 0.0 | 0.9 | 0.00 | 0.00 | 0.00 | 83 | 1015.0 |
| 20260508111524 | 59 | 237 | 0.9 | 1.7 | 0.00 | 0.00 | 0.00 | 83 | 1015.0 |
| 20260508110520 | 59 | 169 | 0.9 | 1.7 | 0.00 | 0.00 | 0.00 | 83 | 1014.8 |
| 20260508105535 | 59 | 174 | 0.9 | 3.5 | 0.00 | 0.00 | 0.00 | 84 | 1014.8 |
| 20260508104526 | 59 | 245 | 0.0 | 2.6 | 0.00 | 0.00 | 0.00 | 84 | 1014.8 |
| 20260508103521 | 59 | 156 | 1.7 | 2.6 | 0.00 | 0.00 | 0.00 | 85 | 1014.4 |
| 20260508102516 | 59 | 173 | 1.7 | 6.1 | 0.00 | 0.00 | 0.00 | 85 | 1014.5 |
| 20260508101527 | 58 | 153 | 0.9 | 1.7 | 0.00 | 0.00 | 0.00 | 86 | 1014.4 |
| 20260508100542 | 58 | 84 | 0.0 | 0.9 | 0.00 | 0.00 | 0.00 | 85 | 1014.3 |
| 20260508095517 | 58 | 84 | 0.0 | 1.7 | 0.00 | 0.00 | 0.00 | 84 | 1014.3 |
| 20260508094528 | 59 | 123 | 0.0 | 1.7 | 0.00 | 0.00 | 0.00 | 84 | 1014.3 |
| 20260508093523 | 59 | 140 | 0.9 | 1.7 | 0.00 | 0.00 | 0.00 | 84 | 1014.3 |
| 20260508092519 | 59 | 160 | 0.9 | 2.6 | 0.00 | 0.00 | 0.00 | 85 | 1014.4 |
| 20260508091530 | 59 | 128 | 0.0 | 0.9 | 0.00 | 0.00 | 0.00 | 84 | 1014.4 |
| 20260508090525 | 59 | 0.0 | 0.0 | 0.00 | 0.00 | 0.00 | 83 | 1014.8 | |
| 20260508085520 | 60 | 127 | 0.0 | 0.9 | 0.00 | 0.00 | 0.00 | 84 | 1014.5 |
| 20260508084543 | 60 | 145 | 0.9 | 2.6 | 0.00 | 0.00 | 0.00 | 84 | 1014.4 |
| 20260508083519 | 60 | 124 | 2.6 | 3.5 | 0.00 | 0.00 | 0.00 | 83 | 1014.4 |
| 20260508082529 | 61 | 109 | 0.9 | 1.7 | 0.00 | 0.00 | 0.00 | 80 | 1014.9 |
| 20260508081528 | 61 | 125 | 0.9 | 1.7 | 0.00 | 0.00 | 0.00 | 80 | 1015.0 |
| 20260508080527 | 61 | 218 | 0.0 | 0.9 | 0.00 | 0.00 | 0.00 | 80 | 1015.4 |
| 20260508075526 | 61 | 0.0 | 0.0 | 0.00 | 0.00 | 0.00 | 79 | 1015.6 | |
| 20260508074521 | 61 | 0.0 | 0.0 | 0.00 | 0.00 | 0.00 | 80 | 1015.8 | |
| 20260508073520 | 61 | 260 | 0.0 | 0.9 | 0.00 | 0.00 | 0.00 | 81 | 1015.8 |
| 20260508072531 | 61 | 258 | 0.9 | 1.7 | 0.00 | 0.00 | 0.00 | 80 | 1015.5 |
| 20260508071524 | 61 | 256 | 0.0 | 0.9 | 0.00 | 0.00 | 0.00 | 78 | 1015.4 |
| 20260508070538 | 61 | 0.0 | 0.0 | 0.00 | 0.00 | 0.00 | 77 | 1015.3 | |
| 20260508065527 | 61 | 165 | 0.0 | 0.9 | 0.00 | 0.00 | 0.00 | 79 | 1015.3 |
| 20260508064031 | 62 | 165 | 0.0 | 0.9 | 0.00 | 0.00 | 0.00 | 77 | 1015.6 |
| 20260508063026 | 62 | 165 | 0.0 | 0.9 | 0.00 | 0.00 | 0.00 | 77 | 1015.7 |
| 20260508062041 | 62 | 165 | 0.0 | 0.9 | 0.00 | 0.00 | 0.00 | 77 | 1015.8 |
| 20260508061024 | 61 | 0.0 | 0.0 | 0.00 | 0.00 | 0.00 | 78 | 1016.0 | |
| 20260508060030 | 61 | 166 | 0.0 | 0.9 | 0.00 | 0.00 | 0.00 | 79 | 1016.1 |
| 20260508055022 | 61 | 137 | 0.0 | 0.9 | 0.00 | 0.00 | 0.00 | 77 | 1016.0 |
| 20260508054056 | 61 | 0.0 | 0.0 | 0.00 | 0.00 | 0.00 | 75 | 1016.0 | |
| 20260508053053 | 61 | 0.0 | 0.0 | 0.00 | 0.00 | 0.00 | 76 | 1016.2 | |
| 20260508052030 | 62 | 0.0 | 0.0 | 0.00 | 0.00 | 0.00 | 74 | 1016.0 | |
| 20260508051024 | 62 | 0.0 | 0.0 | 0.00 | 0.00 | 0.00 | 73 | 1016.2 | |
| 20260508050032 | 62 | 133 | 0.0 | 0.9 | 0.00 | 0.00 | 0.00 | 73 | 1015.9 |
| 20260508045025 | 62 | 133 | 0.9 | 1.7 | 0.00 | 0.00 | 0.00 | 73 | 1016.0 |
| 20260508044033 | 62 | 0.0 | 0.0 | 0.00 | 0.00 | 0.00 | 71 | 1016.2 | |
| 20260508043032 | 63 | 0.0 | 0.0 | 0.00 | 0.00 | 0.00 | 70 | 1016.1 | |
| 20260508042028 | 63 | 0.0 | 0.0 | 0.00 | 0.00 | 0.00 | 69 | 1016.0 | |
| 20260508041046 | 63 | 133 | 0.0 | 0.9 | 0.00 | 0.00 | 0.00 | 69 | 1016.1 |
| 20260508040023 | 64 | 133 | 0.0 | 0.9 | 0.00 | 0.00 | 0.00 | 67 | 1015.9 |
| 20260508035040 | 64 | 110 | 0.9 | 2.6 | 0.00 | 0.00 | 0.00 | 68 | 1015.9 |
| 20260508034017 | 64 | 0.0 | 0.0 | 0.00 | 0.00 | 0.00 | 67 | 1016.0 | |
| 20260508033051 | 64 | 0.0 | 0.0 | 0.00 | 0.00 | 0.00 | 66 | 1015.7 | |
| 20260508032029 | 64 | 94 | 0.0 | 0.9 | 0.00 | 0.00 | 0.00 | 68 | 1015.4 |
| 20260508031027 | 64 | 122 | 0.9 | 2.6 | 0.00 | 0.00 | 0.00 | 65 | 1015.1 |
| 20260508030040 | 64 | 0.0 | 0.0 | 0.00 | 0.00 | 0.00 | 63 | 1015.3 | |
| 20260508025030 | 65 | 159 | 0.0 | 0.9 | 0.00 | 0.00 | 0.00 | 62 | 1015.2 |
| 20260508024025 | 65 | 159 | 0.0 | 1.7 | 0.00 | 0.00 | 0.00 | 61 | 1015.1 |
| 20260508023021 | 65 | 159 | 0.0 | 1.7 | 0.00 | 0.00 | 0.00 | 60 | 1015.2 |
| 20260508022016 | 66 | 159 | 0.9 | 1.7 | 0.00 | 0.00 | 0.00 | 59 | 1015.2 |
| 20260508021027 | 66 | 159 | 0.0 | 0.9 | 0.00 | 0.00 | 0.00 | 58 | 1015.4 |
| 20260508020022 | 66 | 159 | 0.0 | 0.9 | 0.00 | 0.00 | 0.00 | 57 | 1015.2 |
| 20260508015018 | 66 | 0.0 | 0.0 | 0.00 | 0.00 | 0.00 | 56 | 1015.1 | |
| 20260508014028 | 67 | 0.0 | 0.0 | 0.00 | 0.00 | 0.00 | 56 | 1015.2 | |
| 20260508013024 | 67 | 159 | 0.0 | 0.9 | 0.00 | 0.00 | 0.00 | 55 | 1015.1 |
| 20260508012039 | 67 | 159 | 0.0 | 0.9 | 0.00 | 0.00 | 0.00 | 55 | 1015.1 |
| 20260508011030 | 68 | 159 | 0.0 | 0.9 | 0.00 | 0.00 | 0.00 | 54 | 1015.1 |
| 20260508010045 | 68 | 158 | 0.0 | 0.9 | 0.00 | 0.00 | 0.00 | 53 | 1015.1 |
| 20260508005021 | 69 | 158 | 0.9 | 1.7 | 0.00 | 0.00 | 0.00 | 53 | 1015.3 |
| 20260508004017 | 69 | 148 | 0.0 | 2.6 | 0.00 | 0.00 | 0.00 | 53 | 1015.2 |
| 20260508003047 | 69 | 141 | 0.0 | 1.7 | 0.00 | 0.00 | 0.00 | 52 | 1015.2 |
| 20260508002022 | 70 | 141 | 0.9 | 2.6 | 0.00 | 0.00 | 0.00 | 51 | 1015.2 |
| 20260508001018 | 70 | 139 | 0.9 | 2.6 | 0.00 | 0.00 | 0.00 | 50 | 1015.5 |
| 20260508000029 | 70 | 148 | 1.7 | 5.2 | 0.00 | 0.00 | 0.00 | 49 | 1015.6 |
| 20260507235024 | 71 | 132 | 0.9 | 2.6 | 0.00 | 0.00 | 0.00 | 48 | 1015.4 |
| 20260507234020 | 72 | 138 | 0.9 | 2.6 | 0.00 | 0.00 | 0.00 | 48 | 1015.4 |
| 20260507233015 | 72 | 143 | 1.7 | 3.5 | 0.00 | 0.00 | 0.00 | 47 | 1015.3 |
| 20260507232026 | 72 | 130 | 1.7 | 3.5 | 0.00 | 0.01 | 0.00 | 47 | 1015.5 |
| 20260507231021 | 72 | 140 | 1.7 | 5.2 | 0.00 | 0.11 | 0.00 | 46 | 1015.6 |
| 20260507230017 | 73 | 141 | 2.6 | 5.2 | 0.00 | 0.11 | 0.00 | 46 | 1015.7 |
| 20260507225027 | 73 | 125 | 1.7 | 3.5 | 0.00 | 0.11 | 0.00 | 45 | 1015.6 |
| 20260507224023 | 73 | 134 | 1.7 | 5.2 | 0.00 | 0.11 | 0.00 | 45 | 1015.7 |
| 20260507223018 | 74 | 134 | 1.7 | 3.5 | 0.00 | 0.11 | 0.00 | 44 | 1015.8 |